GFSNE_925_spd_024.txt.gz
Wind_Speed
16 15 15 16 14 12 13 12 9 3 4 8 10 19 19 16 14 15 14 16 18 19 20 20 22 23 23 21 18 16 16 16 17 18 18 19 20 19
17 17 17 17 15 16 20 18 18 16 8 16 20 19 18 18 22 22 18 16 17 13 16 18 21 23 24 24 24 21 19 18 18 19 19 18 17 18
15 15 18 20 20 19 20 17 20 20 11 19 24 23 22 18 16 19 23 27 22 21 20 25 26 28 29 30 31 30 27 22 19 17 18 19 19 18
17 20 22 21 22 20 20 20 20 19 20 17 21 20 21 23 23 23 24 22 22 22 23 25 29 31 31 30 28 28 27 27 25 22 19 19 17 20
23 24 24 23 22 21 22 22 20 20 20 20 19 21 23 24 26 25 24 25 23 22 25 26 25 22 23 27 27 30 30 29 30 31 30 29 26 23
23 27 27 27 26 25 18 16 18 22 22 22 21 21 22 22 27 26 25 25 24 22 24 24 15 23 27 30 30 29 30 32 34 36 37 36 34 31
23 25 26 27 28 27 24 23 20 20 19 18 19 19 17 18 16 17 18 17 19 18 19 21 22 23 19 17 25 27 30 33 35 37 35 35 37 37
24 26 27 26 25 22 18 22 24 20 17 18 19 19 21 21 20 18 17 15 4 11 11 16 16 19 20 20 19 17 18 19 18 25 29 31 33 34
24 25 26 24 26 23 22 20 18 17 20 23 22 24 22 24 23 22 22 19 17 19 19 21 21 24 25 23 22 22 23 22 24 25 19 22 26 27
23 26 26 27 26 25 26 23 24 22 22 22 25 30 27 27 26 23 21 20 23 23 22 18 22 26 27 29 27 27 29 31 31 28 28 28 26 27
22 23 24 27 27 26 26 23 24 23 22 21 20 23 25 27 28 27 23 20 18 20 19 19 19 24 26 28 30 30 31 32 33 32 31 29 30 27
22 23 24 24 21 12 14 16 16 16 19 21 24 26 27 26 25 25 26 19 19 15 23 20 21 19 9 21 29 31 30 29 28 28 29 30 29 30
22 24 25 23 19 20 16 19 20 20 21 20 23 23 23 23 23 22 23 25 22 21 25 18 16 18 15 14 16 16 17 17 19 21 21 24 27 30
24 26 22 26 19 19 18 16 16 17 19 18 19 18 18 18 16 16 18 20 24 28 28 22 8 14 16 13 11 14 15 15 18 18 16 19 21 22
25 25 23 22 16 17 20 15 16 17 15 11 13 14 15 17 17 17 15 16 18 21 23 23 22 17 16 12 8 8 7 11 13 14 15 16 17 19
26 23 22 16 16 17 18 15 13 13 13 13 14 16 16 15 15 16 16 11 12 15 15 15 18 20 18 18 16 17 15 8 12 14 15 16 15 16
21 17 16 18 17 18 18 19 17 16 15 16 16 16 15 16 17 18 18 11 12 13 12 13 16 17 19 18 15 15 15 14 13 13 14 16 17 15
17 14 14 16 16 17 15 15 17 18 19 18 16 15 15 16 17 18 18 13 13 14 15 7 10 11 10 11 19 18 15 12 12 11 13 14 16 13
13 14 14 15 16 17 17 17 18 18 19 20 17 17 16 17 17 15 17 16 16 16 13 15 13 5 3 3 1 11 10 9 8 11 11 13 13 10
14 14 15 16 16 17 18 19 21 19 18 20 20 20 19 18 14 15 15 15 15 13 12 13 15 12 5 3 2 2 2 5 8 9 10 11 3 7
14 13 14 14 16 16 18 19 20 19 19 19 20 22 22 18 16 14 14 15 14 13 10 11 11 10 9 10 3 4 3 7 5 5 8 10 4 6
14 15 14 14 15 16 17 18 18 19 19 20 21 22 23 19 19 16 16 15 13 15 13 13 10 8 7 8 7 5 3 4 5 7 7 4 3 2
13 13 14 14 14 14 16 17 17 17 17 18 19 22 23 20 21 17 16 17 14 16 17 17 10 8 5 4 5 4 3 2 3 4 8 7 4 2

GFSNE_925_spd_030.txt.gz
Wind_Speed
13 14 15 15 15 20 17 14 5 3 3 6 9 20 20 19 15 13 16 17 13 10 18 14 12 9 12 11 10 10 11 11 10 9 9 5 4 8
16 12 10 11 13 16 18 19 17 13 4 11 21 19 15 15 13 12 12 14 18 12 12 12 12 18 11 17 12 12 12 11 9 9 10 11 12 6
4 8 13 17 19 21 22 23 22 17 12 16 14 10 11 15 16 15 15 15 13 15 18 14 14 12 21 15 19 19 16 14 11 9 11 11 11 12
10 15 19 21 24 24 23 23 22 22 22 13 11 14 17 19 20 23 22 19 20 22 19 17 22 17 17 18 24 22 18 15 14 12 11 10 12 13
13 16 19 20 22 22 22 24 24 23 19 19 15 13 14 15 16 18 16 9 14 13 13 16 18 19 21 21 19 21 21 21 20 18 16 13 12 14
19 18 17 18 19 21 22 18 16 17 16 18 19 17 14 14 16 17 20 20 19 16 13 12 10 6 6 12 19 20 20 19 18 20 19 16 15 16
17 16 17 16 17 17 16 17 16 17 16 14 13 11 13 14 16 17 16 20 21 21 21 17 11 7 8 10 10 10 10 16 18 18 19 20 20 20
18 20 18 18 17 19 19 19 18 19 17 16 14 11 16 18 19 18 18 14 4 10 10 13 14 19 17 12 10 10 10 12 16 17 18 18 17 16
19 20 21 17 23 24 23 21 21 20 20 21 19 19 19 22 21 19 19 17 13 21 19 19 18 17 18 20 20 18 17 16 17 17 18 18 19 20
17 19 21 24 23 21 23 21 22 19 16 17 21 23 22 23 22 21 21 20 18 20 19 12 20 21 20 19 17 18 20 21 22 22 23 24 25 25
22 21 22 22 21 20 20 23 19 21 20 17 17 15 14 13 14 16 17 14 14 18 21 19 20 22 24 25 25 22 19 21 23 24 25 27 26 26
18 20 20 19 21 22 23 22 16 20 21 18 17 17 18 20 21 21 24 18 16 12 19 16 19 14 5 13 21 25 23 19 19 22 23 23 24 25
20 20 22 21 21 16 17 16 20 16 17 19 17 16 14 13 13 14 18 23 19 19 17 10 8 11 10 8 12 9 9 13 13 13 13 15 17 21
21 22 22 16 18 15 16 16 12 11 11 11 13 12 11 10 10 9 10 12 17 22 22 17 12 15 13 7 9 10 7 11 16 13 12 14 16 17
16 16 16 15 14 17 16 14 15 14 12 12 11 10 11 11 10 8 7 8 9 11 14 17 22 21 18 13 6 8 3 6 10 10 9 13 13 12
15 13 15 15 15 16 17 18 19 16 15 14 12 12 11 11 10 9 9 8 4 6 6 8 16 17 14 16 13 13 13 7 6 7 11 13 13 14
14 13 16 18 16 17 18 19 20 19 19 18 16 14 13 13 12 11 10 10 6 6 5 9 5 12 14 12 11 15 16 16 15 14 13 14 14 14
14 15 15 16 16 15 17 17 19 20 19 18 18 18 16 16 14 13 14 13 11 11 12 12 7 2 4 5 11 11 12 11 9 8 10 10 11 13
13 13 14 15 15 14 16 15 16 18 18 18 18 18 19 18 16 14 14 15 12 10 10 11 12 7 2 1 2 6 5 6 9 10 11 11 14 18
13 12 12 13 14 13 16 16 17 18 17 17 18 19 19 18 17 16 15 14 13 12 11 11 9 9 2 2 3 3 3 4 2 3 5 8 10 10
11 12 10 11 13 12 14 15 16 17 16 14 16 18 18 18 18 16 17 13 14 15 12 14 11 6 5 5 3 3 2 3 4 5 5 4 4 2
9 10 10 10 12 12 11 14 15 18 17 15 16 17 17 16 17 16 15 15 14 14 13 10 8 4 3 3 3 2 2 3 2 2 5 4 2 2
9 9 11 10 11 12 11 13 14 15 14 14 14 15 16 17 15 14 13 14 13 14 16 14 11 7 6 4 3 4 3 3 4 4 3 4 2 2

GFSNE_925_spd_033.txt.gz
Wind_Speed
12 13 13 11 8 9 11 11 5 5 6 9 8 17 15 14 12 11 11 12 14 14 12 15 16 21 6 3 7 8 7 7 6 6 5 6 9 8
13 12 7 8 11 13 16 16 14 13 7 12 19 19 14 14 12 14 13 13 12 12 10 13 11 11 14 13 9 12 6 6 5 7 8 6 8 7
5 8 11 14 16 20 21 20 19 16 11 18 21 21 15 13 15 18 20 20 18 16 16 15 15 14 9 17 12 9 14 10 11 9 8 9 9 8
11 13 16 19 21 21 21 22 21 20 19 15 19 20 17 16 15 15 17 17 16 16 18 19 18 14 19 13 14 14 16 16 15 10 9 8 9 10
13 17 19 17 20 20 21 22 21 18 15 16 15 17 18 17 14 12 14 15 15 13 12 10 9 13 15 17 22 21 14 16 19 16 13 10 9 8
18 18 17 17 18 19 20 19 14 18 16 15 15 15 15 15 15 12 14 14 17 16 18 16 11 9 7 8 13 17 21 20 21 17 17 15 13 12
18 18 18 18 18 18 18 21 23 18 16 16 15 13 13 14 14 11 13 16 19 18 16 18 14 9 5 6 6 7 8 14 18 20 20 20 18 16
20 20 20 20 19 18 22 22 21 22 19 17 16 15 16 18 19 19 16 11 3 9 7 8 7 13 14 15 13 10 8 7 9 12 16 18 19 18
19 20 20 16 22 23 23 21 22 21 22 23 20 19 17 20 22 20 17 14 14 21 17 18 17 17 17 16 17 18 19 16 14 15 15 17 17 17
22 21 20 22 21 21 23 24 20 23 20 18 19 20 21 22 21 23 21 18 18 20 17 11 16 20 21 21 19 17 19 21 20 19 19 18 19 20
18 20 19 19 19 20 24 25 26 24 22 19 18 19 19 19 14 14 16 11 10 17 18 17 22 21 23 23 23 23 23 20 21 23 24 24 24 24
21 21 18 17 21 18 20 20 19 21 20 17 17 18 16 17 19 21 22 17 14 8 16 14 18 10 5 8 14 21 26 24 22 21 22 23 24 25
19 19 20 18 20 17 16 17 17 14 13 12 14 15 14 11 11 13 18 23 18 20 13 10 6 8 8 6 10 11 8 15 17 13 12 16 21 23
16 18 17 18 16 15 16 17 14 14 14 13 12 11 11 11 10 8 8 13 18 23 19 16 12 14 11 4 6 7 4 7 12 16 14 14 16 16
15 14 15 15 14 15 16 16 16 17 17 15 13 12 12 11 11 10 8 9 13 16 15 16 20 18 15 11 7 8 5 2 6 10 13 12 13 12
15 12 13 14 13 14 16 17 17 18 17 16 16 15 13 12 11 8 7 6 5 6 5 7 13 16 15 15 9 9 11 7 3 9 7 8 8 9
13 12 15 18 18 17 19 17 18 20 20 20 18 18 16 14 13 11 9 8 7 3 5 4 4 7 12 13 9 14 15 15 13 13 13 13 14 12
10 11 14 16 17 14 16 17 18 19 19 17 18 17 17 16 15 14 13 11 8 10 11 11 8 1 3 3 8 9 9 11 10 9 11 10 13 13
11 10 10 12 14 13 16 15 15 17 14 14 16 17 17 16 16 15 15 13 12 11 10 9 10 8 0 1 1 2 3 3 5 7 9 10 10 13
9 9 9 10 12 11 13 15 16 17 15 14 16 17 18 16 16 15 14 14 13 11 11 9 9 9 1 1 3 2 2 3 2 2 4 7 11 13
8 8 9 9 10 11 10 12 13 15 14 13 15 16 16 16 16 15 15 12 12 13 12 13 11 7 6 3 3 2 2 1 3 3 4 3 3 3
8 8 8 9 9 10 10 12 13 14 14 13 13 14 14 14 14 15 13 14 14 13 14 12 9 5 1 1 2 2 1 1 2 2 4 4 2 1
7 7 7 9 8 9 9 10 13 13 12 12 11 13 13 14 12 12 10 11 14 14 15 13 10 5 5 4 3 2 2 3 3 3 3 2 2 3

GFSNE_925_spd_036.txt.gz
Wind_Speed
15 15 16 14 9 9 9 9 4 3 8 13 17 16 22 20 16 19 15 14 13 12 10 9 12 11 9 7 4 3 3 4 6 8 9 11 11 14
14 13 11 10 12 14 16 17 14 14 8 17 22 23 22 22 19 18 19 19 18 17 14 11 11 10 10 10 8 8 8 4 6 5 7 10 12 12
9 10 11 13 17 20 23 22 20 18 13 24 24 28 27 24 23 19 17 20 19 18 19 18 15 12 11 9 14 14 14 11 6 5 6 8 11 11
10 13 16 20 22 22 21 20 20 21 19 19 23 22 23 22 17 19 17 18 18 16 14 14 13 10 11 13 11 10 12 6 11 11 8 10 10 11
13 18 21 21 21 21 21 22 21 19 17 18 21 18 19 20 22 20 18 17 17 16 16 18 15 11 8 11 17 15 11 12 13 11 12 12 11 11
19 20 20 20 21 23 23 23 19 18 18 20 21 20 19 20 19 17 18 18 17 16 15 16 19 16 11 9 13 20 24 19 19 14 17 17 17 12
20 20 21 20 22 22 22 19 18 19 18 18 18 18 17 14 17 14 13 17 20 19 19 15 15 14 11 7 4 6 13 19 25 23 20 22 24 20
17 19 23 21 20 19 21 24 23 23 20 18 19 17 18 17 21 20 16 10 5 13 12 9 6 10 13 14 11 8 6 7 11 20 24 25 24 23
22 24 20 17 20 22 21 21 23 22 23 23 21 17 17 18 20 19 20 15 14 18 14 17 16 18 17 17 17 17 16 15 12 10 11 16 19 22
21 18 19 20 21 19 23 26 26 25 23 22 22 23 22 21 21 23 23 21 21 21 17 11 14 20 17 15 17 19 18 19 19 18 16 14 16 18
18 19 17 17 18 22 22 20 20 22 18 19 18 19 19 20 21 20 14 16 10 11 11 15 15 19 21 23 20 21 22 23 20 21 22 22 20 19
22 20 17 16 20 21 20 18 18 16 19 19 18 16 16 17 18 20 22 15 12 6 14 14 14 9 4 6 5 8 19 26 24 23 20 22 23 24
19 18 19 18 19 19 18 18 19 18 17 16 15 13 12 12 12 11 17 22 17 18 13 10 5 7 6 4 6 7 7 7 22 24 22 21 22 25
18 18 18 18 17 16 16 17 15 15 17 17 16 13 15 15 15 13 10 12 17 23 18 17 10 13 7 3 4 6 7 1 8 15 17 16 16 20
15 14 14 15 15 14 15 15 15 17 17 16 15 15 16 16 15 13 11 11 12 16 18 19 22 17 13 8 5 4 4 1 0 6 11 17 16 19
15 12 12 13 14 14 17 16 16 17 15 16 17 18 16 15 13 12 9 9 5 4 2 6 10 13 14 16 13 8 6 4 2 5 8 9 11 12
14 11 13 16 18 18 19 18 19 20 19 18 18 19 16 16 16 16 14 10 10 7 8 7 2 9 13 13 7 9 9 11 12 10 10 11 11 12
12 11 11 13 15 15 18 19 19 21 19 17 17 17 17 17 17 17 15 13 10 10 10 11 10 1 2 1 4 5 6 8 9 8 10 7 11 12
9 10 10 11 13 13 13 14 16 18 15 14 15 17 17 16 16 15 15 14 12 11 12 11 11 7 1 1 2 1 1 3 3 4 5 9 6 5
9 9 10 10 11 12 11 13 13 15 14 13 14 15 16 14 15 15 15 14 13 11 12 10 9 6 1 1 3 3 3 3 3 1 2 5 8 10
9 9 9 10 10 11 10 10 11 13 12 11 12 13 14 14 14 13 13 13 13 11 11 14 13 8 7 3 2 3 4 1 1 2 3 2 2 1
10 11 9 9 9 10 9 9 11 12 12 12 11 12 13 13 13 14 13 13 14 13 13 14 11 6 2 4 2 2 2 2 1 1 2 3 1 1
12 11 10 9 9 9 9 9 10 12 12 11 10 11 12 14 13 12 12 11 14 14 14 13 11 6 3 3 2 1 2 2 1 1 3 2 1 1

GFSNE_925_spd_039.txt.gz
Wind_Speed
16 12 12 11 9 8 9 9 12 13 14 26 29 22 22 22 23 22 21 21 21 20 17 14 13 13 14 14 4 11 6 7 9 10 11 12 19 19
10 10 9 8 9 10 12 13 16 20 14 27 29 28 26 24 24 24 23 22 20 22 20 18 15 14 13 11 11 5 5 5 4 8 7 9 12 16
9 8 10 10 13 17 18 19 20 20 19 29 27 26 26 24 23 22 21 21 19 18 18 17 14 13 13 12 10 8 11 7 8 9 8 6 5 11
7 10 13 16 18 19 19 19 19 20 22 26 27 26 24 23 22 20 19 21 20 18 19 17 17 13 10 12 13 11 14 14 12 11 10 14 10 7
9 14 18 19 20 20 21 22 21 21 21 23 27 25 25 23 23 21 21 21 20 18 19 17 15 16 14 12 13 18 15 13 22 15 10 10 12 14
14 16 18 19 20 22 23 23 22 21 21 22 26 26 23 21 20 21 20 19 20 18 16 16 16 16 16 14 14 16 21 14 8 9 19 12 9 13
15 16 16 17 21 20 21 21 21 22 23 23 23 22 21 19 17 17 17 18 19 17 17 16 14 12 10 11 8 8 12 23 21 18 17 18 17 13
16 18 17 17 15 17 17 17 18 20 22 22 22 21 24 21 20 18 17 14 11 16 14 14 8 9 9 10 11 9 7 7 16 26 24 21 20 19
15 17 16 15 16 15 16 18 20 20 22 23 24 23 23 21 17 18 17 16 19 18 15 18 14 15 14 13 15 15 13 12 9 9 16 23 26 27
15 14 16 16 15 16 21 19 20 19 17 18 19 23 23 21 19 19 19 19 20 18 16 14 14 16 14 12 14 15 18 18 17 14 12 12 17 22
14 15 15 15 15 19 20 18 18 18 15 18 18 19 20 19 19 18 18 17 14 14 12 13 13 14 14 17 16 19 20 21 22 22 21 18 15 16
16 15 13 15 17 18 18 17 18 18 20 19 18 16 15 12 13 16 17 15 16 14 12 12 12 7 4 5 4 6 12 21 24 24 22 23 21 16
16 16 15 16 18 17 16 14 16 17 16 16 15 13 12 12 11 10 10 14 16 18 13 10 10 7 6 4 3 2 4 6 13 23 26 24 22 23
15 15 15 16 16 14 12 14 15 13 14 14 13 13 13 13 13 13 12 11 13 17 14 14 9 11 9 5 4 2 3 3 6 11 18 20 23 21
12 13 13 14 14 11 12 12 11 12 13 13 14 14 14 14 14 11 10 10 12 13 15 16 17 13 11 8 4 3 3 3 3 5 10 14 16 15
13 11 10 11 11 10 11 11 11 11 10 12 13 15 14 13 12 13 10 9 5 2 3 8 13 16 11 10 8 8 5 3 2 3 4 8 12 14
13 8 8 9 10 10 11 11 11 12 11 11 13 15 14 14 14 14 13 10 9 8 8 7 1 9 10 9 7 6 3 4 5 4 5 7 7 9
8 8 8 8 9 10 11 12 11 13 12 11 11 12 14 14 14 13 12 11 10 10 9 9 10 1 5 2 2 3 2 2 4 5 7 7 10 9
8 8 7 7 8 9 9 10 11 12 11 10 11 12 13 12 12 12 12 11 10 9 8 8 7 5 2 1 2 3 1 2 2 2 4 7 7 8
9 9 8 6 7 7 8 8 10 10 10 10 9 10 11 11 11 11 10 11 11 10 8 7 5 5 4 3 3 2 4 1 1 0 1 2 5 7
11 10 8 7 7 7 7 7 8 9 10 9 8 9 10 10 9 10 10 9 10 9 9 8 7 8 6 4 4 3 2 2 1 2 1 1 1 2
13 12 10 8 7 7 7 7 7 8 8 8 8 8 9 9 9 9 9 10 10 10 10 10 9 5 4 5 2 1 3 2 1 1 2 3 2 1
14 13 11 10 9 9 7 7 7 7 8 8 7 8 8 9 9 9 8 8 9 9 9 9 8 5 3 3 3 2 2 2 1 1 2 1 1 1

GFSNE_925_spd_042.txt.gz
Wind_Speed
13 12 13 14 14 15 17 19 19 13 14 28 28 27 26 26 26 26 28 28 26 24 21 21 21 20 20 19 18 18 15 13 11 11 10 24 24 23
13 13 14 13 14 17 19 21 21 24 15 30 31 29 27 27 27 26 29 28 28 26 23 22 18 18 19 19 15 18 17 15 4 18 7 8 5 18
13 12 14 15 17 21 23 24 25 26 22 33 31 30 28 28 26 23 25 27 26 24 23 16 17 17 17 17 16 12 14 16 13 5 10 3 1 1
12 13 15 18 22 23 24 23 25 27 28 30 31 30 28 27 27 25 25 26 26 22 14 15 18 19 18 17 16 13 12 11 12 11 10 17 20 8
11 14 19 21 23 23 23 25 25 26 26 26 29 26 27 26 26 23 22 24 25 24 26 24 17 14 16 17 17 15 15 14 15 18 18 18 17 12
14 17 19 19 19 20 23 24 24 23 22 24 25 25 25 24 23 23 21 21 21 21 20 18 18 18 18 17 17 17 16 18 14 15 17 15 20 14
16 16 16 16 18 17 17 20 20 21 21 22 23 23 22 21 20 19 19 20 20 19 21 17 18 16 13 11 12 13 14 15 18 14 11 19 11 15
15 16 16 15 13 17 15 16 18 19 21 22 23 22 24 24 22 22 21 18 10 15 18 19 16 15 13 9 8 11 9 8 15 24 20 18 18 20
14 15 16 14 16 16 17 19 22 20 21 22 25 25 25 22 22 22 21 19 19 16 17 17 14 15 14 14 15 17 15 11 10 11 23 23 21 21
13 14 15 16 15 15 19 21 21 19 19 19 20 24 24 22 23 21 21 22 22 19 18 17 15 17 15 16 15 18 19 19 15 12 11 15 25 24
13 14 14 15 14 17 20 20 20 19 17 16 20 22 22 22 20 19 20 19 17 18 15 16 13 14 13 14 15 17 17 20 22 20 16 13 12 17
14 14 12 11 16 18 18 18 18 18 20 20 20 18 16 15 14 13 16 16 15 14 15 9 10 9 7 10 11 13 15 21 22 24 23 20 17 13
14 15 14 14 16 17 16 14 16 20 19 18 18 17 14 13 13 14 15 13 14 14 13 11 9 11 9 5 5 6 8 9 12 20 25 25 23 20
14 14 15 16 17 17 13 15 15 14 14 15 15 14 15 14 14 15 16 16 15 16 14 8 10 13 11 9 7 5 7 6 9 10 17 20 25 23
12 15 17 15 15 13 11 12 12 12 13 13 13 14 16 16 15 14 14 14 15 15 14 14 15 13 11 11 6 4 5 6 6 6 11 17 20 20
10 14 13 13 12 11 10 9 10 11 11 12 13 14 15 15 14 14 15 14 10 3 6 11 15 15 13 12 10 8 7 5 7 5 6 10 16 18
13 11 11 11 10 9 9 9 9 11 11 11 12 13 14 14 14 14 14 14 12 11 7 6 1 8 10 9 7 9 6 5 5 8 7 9 10 12
10 11 10 10 10 9 9 9 8 9 10 11 11 12 13 14 14 13 12 12 11 11 11 11 11 3 7 5 5 6 1 1 1 2 5 5 8 12
11 11 11 10 11 10 8 8 9 9 9 10 10 11 12 13 12 12 12 12 11 10 10 8 9 11 6 2 4 2 5 3 1 3 5 7 7 6
12 12 11 11 11 10 8 8 8 8 8 9 9 10 11 11 11 11 11 11 11 11 9 8 6 7 8 6 5 4 2 1 2 1 2 3 4 2
14 13 12 11 11 10 9 8 7 7 7 8 8 9 9 10 10 10 11 10 11 9 10 8 9 10 7 6 5 4 1 1 1 2 1 3 2 4
16 14 13 12 11 10 10 9 8 7 6 6 7 7 8 8 9 9 10 11 10 10 9 10 8 6 7 7 6 1 5 4 0 1 1 1 2 0
17 15 14 13 12 11 10 9 8 7 6 6 6 6 7 7 8 8 8 9 9 10 10 9 8 5 4 3 4 3 4 5 5 5 3 1 2 2

GFSNE_925_spd_045.txt.gz
Wind_Speed
14 17 15 13 14 15 15 16 19 12 13 26 27 28 27 25 25 25 27 29 30 29 34 34 30 25 23 23 22 21 22 21 21 19 15 14 14 28
15 17 13 14 14 14 17 22 24 24 14 27 28 29 28 29 29 27 27 28 30 30 33 32 31 25 23 21 22 22 20 20 20 20 17 13 9 6
15 13 13 13 14 16 23 25 24 25 21 27 30 29 29 29 29 29 28 28 29 31 32 26 23 19 20 22 22 22 20 20 18 19 19 17 10 3
10 12 12 15 19 22 24 25 25 27 27 26 28 28 28 27 28 28 29 28 27 28 29 16 17 21 24 26 23 23 20 18 19 17 18 18 15 11
11 11 14 19 21 22 23 24 25 27 27 26 25 24 26 25 26 26 26 25 25 28 28 30 32 30 20 18 19 21 20 18 19 16 14 15 16 15
11 15 18 18 18 17 21 22 22 24 24 24 24 25 24 24 24 25 23 21 21 23 23 23 21 18 22 23 21 20 19 17 17 16 12 14 13 15
15 16 15 15 17 15 14 20 20 21 21 21 22 22 21 22 22 24 23 23 22 22 23 23 21 18 18 23 22 16 13 14 15 16 13 11 8 8
14 15 15 16 12 17 16 11 17 21 24 25 23 22 26 24 24 25 22 21 12 19 19 20 19 19 18 15 4 8 10 9 10 14 18 13 10 10
13 14 15 15 16 15 16 20 20 22 23 24 24 24 24 21 25 25 23 23 22 22 19 20 18 17 15 16 7 12 13 13 11 10 11 18 16 11
12 14 14 14 13 13 18 20 21 21 20 20 20 23 25 26 25 26 26 27 24 22 22 18 19 19 16 17 18 17 17 16 17 12 10 9 14 15
13 13 12 14 13 18 16 19 20 19 17 17 20 23 25 27 25 24 24 19 16 19 18 15 20 18 17 17 17 18 18 17 19 18 14 10 8 11
12 12 11 8 12 14 14 16 19 19 21 23 21 20 20 19 16 16 20 19 16 13 12 11 13 10 10 17 19 17 15 17 18 19 19 16 12 8
12 12 10 14 18 16 14 13 15 20 19 19 19 18 17 16 14 16 17 18 19 18 16 10 13 12 13 10 5 9 12 12 13 14 20 20 18 14
13 12 13 17 17 15 13 13 19 14 15 16 17 16 15 16 17 17 18 19 20 21 20 14 10 11 12 13 10 5 7 8 10 10 12 15 20 20
12 12 16 15 14 13 8 14 12 12 13 14 15 15 16 16 18 17 18 19 20 18 17 15 12 12 12 12 10 6 4 6 5 8 9 11 14 16
12 9 15 14 12 13 12 10 10 10 12 13 14 14 15 15 15 17 19 20 21 9 8 12 14 13 13 13 13 12 8 4 6 5 4 7 13 15
11 12 12 10 11 11 10 10 10 10 11 11 13 13 14 15 15 16 16 18 16 15 13 9 7 9 13 11 9 9 8 6 8 9 5 5 7 12
11 13 13 9 10 10 10 10 10 10 10 11 11 12 13 14 16 14 13 14 15 14 13 13 14 14 9 7 8 8 6 5 6 7 3 3 5 8
12 14 14 11 10 11 10 9 9 9 9 10 11 11 12 13 14 14 12 12 14 14 14 13 13 12 7 2 4 4 7 9 4 1 3 5 4 2
17 16 14 12 11 11 10 9 8 9 9 9 10 10 10 11 12 12 13 13 13 13 13 12 10 11 10 7 7 5 5 3 4 5 3 1 1 2
16 17 16 14 12 11 10 8 8 9 9 8 9 9 9 10 11 11 12 11 14 11 12 12 13 14 9 8 7 8 1 2 1 2 4 4 3 6
18 17 16 14 13 11 10 9 9 9 9 8 8 7 8 9 10 10 10 11 11 11 12 12 11 10 9 11 10 3 8 4 3 1 1 1 2 3
20 18 17 16 14 12 12 11 10 9 8 8 7 7 6 8 8 9 9 10 10 11 12 13 11 10 9 6 6 7 5 5 5 4 2 2 2 3